Погода в Единце

Молдова     48°10′16″N   27°18′12″E
темп.,
°C
ветер,
м/с
пор.,
м/с
влажн.,
%
обл.,
%
осадки,
мм/ч
давл.,
гПа
погр.,
м
17 сентября, пт
пт1700:00+19юв51046100 0.0 1015204
03:00+18юв41056100 0.0 1013230
06:00+17ююв5963100 0.0 1012260
09:00+19ююв466256 0.0 1011246
12:00+24ю5748100 0.0 1009769
15:00+27ю6641100 0.0 10071742
18:00+18юз2393100 2.5 1007118
21:00+17ююв3489100 2.6 100797
18 сентября, сб
сб1800:00+17ю3686100 0.9 1006171
03:00+16з6994100 1.4 1006512
06:00+15зсз7128997 0.1 1007692
09:00+15зсз61084100 0.1 1008632
12:00+19сз89635 0.0 1009921
15:00+21сз684613 0.0 10091668
18:00+20сз45455 0.0 10091454
21:00+15с226649 0.0 101018
19 сентября, вс
вс1900:00+15сз236559 0.0 1011101
03:00+12св11858 0.3 101014
06:00+11ссв11875 0.0 101011
09:00+14ссз237814 0.0 1010316
12:00+18сз555999 0.7 10101130
15:00+15ссз6661100 0.9 1011846
18:00+11сз686588 0.0 1012689
21:00+9сз497598 0.0 1013559
20 сентября, пн
пн2000:00+9зсз4873100 0.0 1013708
03:00+9зсз497697 0.0 1013723
06:00+7зсз498214 0.0 1013395
09:00+10зсз697090 0.0 1013727
12:00+13сз686142 0.0 1013951
15:00+15сз665633 0.0 10131200
18:00+14сз565952 0.0 10141156
21:00+11ссз476798 0.0 1016641
21 сентября, вт
вт2100:00+10сз3669100 0.0 1016704
03:00+9зсз3678100 0.0 1017279
06:00+7зсз3686100 0.0 1018177
09:00+9зсз356771 0.0 1018425
12:00+13зсз565444 0.0 10181131
15:00+13зсз565099 0.0 10181551
18:00+11сз466299 0.1 1019882
21:00+10сз476191 0.1 1020784